Date,TemperatureHighF,TemperatureAvgF,TemperatureLowF,DewpointHighF,DewpointAvgF,DewpointLowF,HumidityHigh,HumidityAvg,HumidityLow,PressureMaxIn,PressureMinIn,WindSpeedMaxMPH,WindSpeedAvgMPH,GustSpeedMaxMPH,PrecipitationSumIn
2013-1-1,56.9,43.1,34.0,43.4,38.0,32.7,95,84,51,30.28,30.17,4,0,4,0.00
2013-1-2,55.0,38.9,30.8,43.9,35.9,29.8,98,90,61,30.27,30.17,4,0,4,0.00
2013-1-3,58.8,40.2,29.2,44.4,35.7,28.3,98,86,53,30.30,30.17,4,0,4,0.00
2013-1-4,58.2,40.8,29.1,45.9,36.9,28.1,98,87,61,30.34,30.20,4,0,4,0.00
2013-1-5,61.8,45.6,31.4,43.3,38.2,30.4,98,78,45,30.29,30.08,4,0,4,0.00
2013-1-6,52.6,47.3,43.7,47.1,44.2,40.7,95,89,77,30.17,30.07,4,1,4,0.31
2013-1-7,53.9,46.1,37.1,45.2,42.1,35.8,95,87,64,30.29,30.13,4,0,4,0.00
2013-1-8,59.1,43.5,33.4,47.3,39.7,32.6,98,88,63,30.26,30.17,4,0,4,0.00
2013-1-9,63.7,48.4,36.1,52.5,44.6,35.1,98,88,66,30.18,29.93,4,0,4,0.00
2013-1-10,51.3,42.8,35.1,47.0,37.3,33.0,97,82,55,30.17,30.02,12,2,12,0.08
2013-1-11,50.3,38.4,28.1,37.8,32.7,26.9,97,81,52,30.25,30.13,9,1,9,0.00
2013-1-12,50.6,38.0,29.0,36.9,31.8,27.5,96,80,52,30.26,30.14,4,0,4,0.00
2013-1-13,50.2,36.6,26.7,35.5,30.7,25.4,97,81,53,30.26,30.15,4,0,4,0.00
2013-1-14,50.7,35.6,25.0,32.8,28.0,23.8,96,77,41,30.43,30.22,4,0,4,0.00
2013-1-15,56.5,37.9,26.5,34.9,29.7,24.9,94,75,40,30.52,30.40,5,1,5,0.00
2013-1-16,59.4,40.3,27.4,37.9,32.6,25.9,96,77,43,30.47,30.28,4,0,4,0.00
2013-1-17,65.1,43.4,28.8,42.5,35.9,27.5,97,78,41,30.31,30.17,4,0,4,0.00
2013-1-18,67.2,45.0,30.8,46.0,37.6,29.5,97,79,37,30.25,30.14,4,0,4,0.00
2013-1-19,65.9,45.3,30.9,45.1,38.0,29.6,97,79,44,30.29,30.16,4,0,4,0.00
2013-1-20,65.7,45.5,31.3,45.7,38.5,30.0,97,79,47,30.26,30.13,4,0,4,0.00
2013-1-21,69.6,47.1,32.5,46.9,38.8,31.2,97,77,34,30.20,30.10,5,0,5,0.00
2013-1-22,71.6,48.4,33.6,45.9,38.9,32.1,95,74,26,30.17,30.02,4,0,4,0.00
2013-1-23,71.0,53.1,40.0,46.0,40.9,36.6,90,66,33,30.08,30.00,8,0,8,0.00
2013-1-24,61.4,56.4,51.2,55.8,53.2,46.1,97,90,69,30.18,30.02,5,1,5,0.15
2013-1-25,62.1,55.4,52.1,56.4,53.5,51.0,97,93,81,30.18,30.02,4,0,4,0.01
2013-1-26,61.4,56.1,52.4,57.5,54.6,48.3,99,95,82,30.03,29.94,7,0,7,0.05
2013-1-27,55.3,47.6,38.7,48.0,41.0,36.0,93,79,58,30.14,29.98,10,2,10,0.05
2013-1-28,56.9,44.1,36.7,43.1,37.7,34.6,94,79,52,30.27,30.12,4,0,4,0.00
2013-1-29,59.3,44.3,33.6,44.1,38.0,32.2,97,80,53,30.32,30.24,5,1,5,0.00
2013-1-30,65.4,46.6,34.0,45.5,39.6,32.9,97,79,46,30.38,30.28,4,0,4,0.00
2013-1-31,68.8,49.4,36.1,48.1,42.3,34.9,98,79,46,30.30,30.17,4,0,4,0.00
2013-2-1,69.3,51.1,37.5,50.9,44.6,36.5,98,80,51,30.25,30.12,4,0,4,0.00
2013-2-2,61.6,53.3,45.5,52.7,48.4,43.2,94,84,70,30.27,30.18,4,0,4,0.00
2013-2-3,66.3,52.5,43.6,54.0,48.6,42.5,98,87,59,30.23,30.09,4,0,4,0.00
2013-2-4,68.1,51.1,39.4,53.0,46.3,38.6,98,85,57,30.20,30.03,4,0,4,0.00
2013-2-5,67.9,53.2,39.8,54.8,47.7,38.8,99,83,59,30.09,29.96,9,1,9,0.00
2013-2-6,57.4,47.8,37.9,47.2,43.8,36.6,96,86,67,30.20,30.09,4,0,4,0.00
2013-2-7,59.1,44.1,32.6,47.7,39.8,31.6,98,86,59,30.17,29.99,4,1,4,0.00
2013-2-8,48.9,43.9,40.9,44.2,41.8,39.9,98,92,79,30.00,29.91,7,1,7,0.47
2013-2-9,56.6,44.5,35.7,41.5,37.2,32.8,96,78,43,30.11,29.97,4,1,4,0.12
2013-2-10,59.9,43.5,31.4,39.7,34.5,29.6,96,74,38,30.12,30.02,5,0,5,0.00
2013-2-11,62.4,45.4,32.0,38.4,35.2,30.1,95,71,39,30.26,30.08,6,1,6,0.00
2013-2-12,65.6,47.5,33.2,39.7,35.6,30.6,93,68,33,30.37,30.25,5,1,5,0.00
2013-2-13,65.6,47.8,33.4,42.2,37.6,31.7,96,71,37,30.34,30.20,6,1,6,0.00
2013-2-14,69.1,50.5,35.4,46.4,40.8,33.3,95,72,40,30.26,30.14,6,1,6,0.00
2013-2-15,74.3,53.7,37.3,50.0,42.6,35.7,96,70,33,30.28,30.20,6,1,6,0.00
2013-2-16,72.2,52.7,38.2,50.2,40.7,35.5,92,68,30,30.23,30.02,5,1,5,0.00
2013-2-17,71.8,52.5,37.5,48.4,41.6,34.2,90,69,39,30.03,29.92,6,1,6,0.00
2013-2-18,71.3,52.3,38.5,48.5,41.9,36.7,95,71,38,30.03,29.87,6,1,6,0.00
2013-2-19,55.8,47.1,37.6,43.2,40.1,35.0,96,78,50,29.95,29.70,8,1,8,0.66
2013-2-20,53.9,42.4,37.4,42.6,38.4,35.1,97,87,62,30.08,29.78,2,0,2,0.01
2013-2-21,58.8,46.6,37.8,42.4,38.3,34.4,90,74,45,30.18,30.02,6,1,6,0.00
2013-2-22,62.9,46.8,32.5,43.1,38.3,31.0,97,75,46,30.26,30.17,5,1,5,0.00
2013-2-23,61.6,48.5,36.5,45.2,40.1,34.8,96,75,50,30.24,30.05,10,1,10,0.00
2013-2-24,65.1,48.7,38.7,38.8,35.5,33.3,87,64,33,30.26,30.13,6,1,6,0.00
2013-2-25,67.6,49.1,33.7,40.5,36.7,31.6,96,67,31,30.28,30.11,5,1,5,0.00
2013-2-26,68.4,50.1,36.2,42.5,38.3,33.5,91,68,33,30.21,30.09,7,1,7,0.00
2013-2-27,70.8,51.7,36.0,44.4,37.8,32.9,95,64,29,30.34,30.21,5,1,5,0.00
2013-2-28,73.0,54.0,36.9,45.7,40.2,33.4,90,63,33,30.43,30.33,4,1,4,0.00
2013-3-1,76.2,56.9,40.2,51.0,44.5,37.5,92,67,36,30.42,30.21,6,1,6,0.00
2013-3-2,83.2,62.3,42.4,54.5,45.6,40.0,92,59,25,30.26,30.02,6,1,6,0.00
2013-3-3,71.9,62.4,52.5,48.8,44.2,39.4,76,52,38,30.09,29.94,8,1,8,0.00
2013-3-4,73.2,58.1,43.9,51.2,46.8,41.7,95,69,38,30.11,29.98,5,1,5,0.00
2013-3-5,74.4,57.8,44.5,51.3,44.9,40.1,91,65,41,30.06,29.87,10,1,10,0.00
2013-3-6,66.7,54.3,45.5,49.3,45.0,39.4,87,72,46,30.08,29.97,8,1,8,0.01
2013-3-7,64.5,53.4,45.8,48.5,44.9,42.6,90,75,48,29.98,29.80,7,1,7,0.01
2013-3-8,49.2,46.1,42.4,47.0,43.7,40.2,95,91,84,30.05,29.77,5,1,5,0.61
2013-3-9,60.2,49.5,45.0,47.6,44.4,42.4,95,83,58,30.32,30.05,4,1,4,0.03
2013-3-10,71.0,54.5,39.5,49.3,44.2,37.6,95,71,42,30.36,30.22,7,1,7,0.00
2013-3-11,73.1,55.3,40.2,53.4,47.1,38.9,97,77,48,30.26,30.08,4,1,4,0.00
2013-3-12,78.1,59.4,42.9,56.1,50.0,41.3,97,74,43,30.14,30.02,5,1,5,0.00
2013-3-13,87.0,63.9,46.5,59.1,52.7,44.9,97,71,31,30.17,30.00,7,1,7,0.00
2013-3-14,86.2,65.9,49.4,60.9,54.6,46.9,93,71,38,30.10,30.00,7,1,7,0.00
2013-3-15,80.8,65.7,54.8,60.6,56.6,52.8,94,75,43,30.06,29.95,5,1,5,0.00
2013-3-16,79.6,63.4,50.3,58.6,54.2,48.5,96,74,43,30.04,29.92,4,1,4,0.00
2013-3-17,75.6,59.9,46.9,52.4,48.7,44.7,95,70,40,30.08,29.96,7,1,7,0.00
2013-3-18,73.4,58.5,44.6,48.5,46.0,42.4,94,67,36,30.10,29.98,4,1,4,0.00
2013-3-19,80.1,62.8,46.3,50.2,46.2,39.7,92,59,26,30.12,30.00,8,1,8,0.00
2013-3-20,71.3,61.6,53.5,55.3,51.7,48.2,87,71,53,30.11,30.00,14,1,14,0.00
2013-3-21,56.7,52.1,49.0,52.0,48.7,43.8,96,89,64,30.04,29.95,1,0,1,0.00
2013-3-22,70.4,54.4,43.3,45.2,41.4,37.5,88,65,36,30.04,29.94,5,1,5,0.00
2013-3-23,71.6,54.3,39.6,57.6,38.4,32.4,84,58,27,30.13,30.00,5,1,5,0.00
2013-3-24,77.1,58.5,41.7,46.1,42.2,38.0,87,59,31,30.09,29.92,5,1,5,0.00
2013-3-25,78.9,57.8,44.9,48.8,45.2,41.6,89,67,31,29.98,29.85,5,0,5,0.00
2013-3-26,78.8,61.6,47.4,53.2,47.5,42.2,86,63,35,29.95,29.84,5,1,5,0.00
2013-3-27,78.4,63.7,52.0,53.1,49.2,45.4,79,61,34,29.98,29.87,6,1,6,0.00
2013-3-28,75.9,62.1,52.0,56.7,52.5,47.8,87,72,48,30.06,29.97,5,1,5,0.00
2013-3-29,83.4,65.4,48.3,56.4,50.8,44.9,90,63,30,30.08,29.93,5,1,5,0.00
2013-3-30,87.4,69.8,56.6,57.1,50.7,45.9,76,54,24,30.02,29.86,10,1,10,0.00
2013-3-31,74.4,64.6,56.3,56.8,52.5,47.9,95,66,45,30.07,29.96,7,1,7,0.11
2013-4-1,76.6,63.4,52.0,51.5,48.9,46.4,84,62,36,30.14,30.01,5,1,5,0.00
2013-4-2,77.5,60.9,47.5,55.6,49.5,44.9,92,69,35,30.14,30.01,6,1,6,0.00
2013-4-3,82.8,65.0,49.0,56.8,51.7,45.9,91,65,38,30.10,29.93,5,1,5,0.00
2013-4-4,78.0,65.7,57.5,59.2,53.1,43.3,84,65,44,30.12,29.95,6,1,6,0.00
2013-4-5,73.9,61.8,55.0,56.6,53.7,49.0,94,76,50,30.13,30.02,4,1,4,0.00
2013-4-6,76.8,60.8,46.1,54.3,49.5,44.5,96,70,37,30.17,30.01,8,1,8,0.00
2013-4-7,78.5,62.8,49.5,56.8,50.8,46.2,93,68,34,30.09,29.81,9,1,9,0.00
2013-4-8,63.6,55.1,49.4,49.5,44.8,40.6,88,69,49,29.85,29.71,16,3,16,0.00
2013-4-9,74.3,58.5,46.0,43.4,40.0,35.7,86,54,25,30.04,29.85,7,1,7,0.00
2013-4-10,83.8,63.7,44.9,44.6,40.5,37.5,81,47,20,30.15,29.98,6,1,6,0.00
2013-4-11,81.6,66.0,50.5,52.4,47.4,42.2,77,53,31,30.00,29.72,8,2,8,0.00
2013-4-12,84.3,67.3,51.7,54.0,50.7,46.9,89,59,30,29.88,29.73,5,1,5,0.00
2013-4-13,85.8,69.2,54.4,55.3,49.0,42.6,83,53,24,29.83,29.67,7,1,7,0.00
2013-4-14,78.7,64.1,50.7,54.0,46.5,36.7,85,56,28,29.84,29.70,9,2,9,0.00
2013-4-15,73.9,59.7,46.9,48.4,42.5,31.1,87,56,27,29.87,29.71,15,3,15,0.00
2013-4-16,67.6,53.7,42.3,41.6,36.6,32.7,76,55,30,30.01,29.87,10,1,10,0.00
2013-4-17,72.2,56.3,41.5,39.6,33.6,27.5,70,46,21,30.18,30.00,8,1,8,0.00
2013-4-18,80.2,61.3,43.4,40.6,34.7,29.6,74,41,17,30.26,30.14,7,1,7,0.00
2013-4-19,83.4,65.1,46.0,45.6,39.0,31.3,75,43,16,30.22,29.98,6,1,6,0.00
2013-4-20,88.9,68.6,50.3,55.5,46.0,39.3,77,48,19,30.02,29.88,4,1,4,0.00
2013-4-21,90.0,70.7,53.7,51.1,47.9,42.8,78,49,21,29.99,29.85,6,1,6,0.00
2013-4-22,91.1,72.4,54.3,54.7,49.1,39.8,81,49,18,29.91,29.74,7,1,7,0.00
2013-4-23,89.1,71.5,57.5,52.4,45.6,37.9,69,44,17,29.89,29.74,7,1,7,0.00
2013-4-24,89.8,72.1,56.6,51.7,46.2,41.8,66,43,19,29.83,29.66,8,1,8,0.00
2013-4-25,81.3,66.8,54.5,56.1,51.5,47.5,78,60,39,30.03,29.84,6,1,6,0.00
2013-4-26,86.1,69.3,54.4,55.8,52.4,48.9,83,58,32,30.14,30.02,7,1,7,0.00
2013-4-27,91.6,72.7,54.9,57.0,53.2,49.8,84,55,27,30.15,29.95,5,1,5,0.00
2013-4-28,94.5,75.8,61.4,60.9,53.2,46.9,73,49,20,29.98,29.77,6,1,6,0.00
2013-4-29,95.0,76.1,58.2,59.1,53.9,49.6,78,50,23,29.83,29.64,5,1,5,0.00
2013-4-30,88.8,73.4,58.2,57.9,51.7,43.0,79,50,22,29.76,29.65,9,2,9,0.00
2013-5-1,89.4,71.7,57.0,48.5,41.3,34.1,63,37,15,30.03,29.76,6,1,6,0.00
2013-5-2,94.1,74.1,55.8,48.8,42.1,27.4,71,38,10,30.13,29.99,6,1,6,0.00
2013-5-3,96.2,75.5,56.5,52.5,43.8,37.3,60,36,15,30.00,29.70,5,1,5,0.00
2013-5-4,98.0,76.1,58.2,50.4,42.7,34.1,69,35,12,29.72,29.47,4,1,4,0.00
2013-5-5,83.5,67.2,53.3,52.5,46.6,38.1,77,50,26,29.80,29.59,5,1,5,0.00
2013-5-6,82.3,68.6,59.9,50.9,48.2,46.5,68,50,29,29.93,29.78,6,2,6,0.00
2013-5-7,71.8,61.5,54.7,54.1,51.6,47.4,94,72,50,30.00,29.93,7,1,7,0.11
2013-5-8,79.6,66.1,53.9,56.8,53.3,50.0,90,65,39,30.07,29.97,10,1,10,0.00
2013-5-9,81.5,68.7,56.3,58.2,54.1,50.4,84,62,40,30.07,29.98,6,1,6,0.00
2013-5-10,90.6,73.5,57.7,61.1,57.4,53.1,85,60,32,30.10,29.97,6,1,6,0.00
2013-5-11,97.7,79.7,62.5,63.6,59.7,53.8,82,54,24,30.06,29.91,7,1,7,0.00
2013-5-12,100.7,82.6,66.6,63.1,59.0,50.3,71,48,19,30.05,29.85,6,1,6,0.00
2013-5-13,101.4,81.5,63.9,62.4,55.9,48.1,75,46,20,29.98,29.79,6,1,6,0.00
2013-5-14,93.8,84.6,71.4,55.7,49.1,37.9,57,32,15,29.87,29.77,9,2,9,0.00
2013-5-15,93.2,75.9,62.4,54.9,50.0,42.7,67,44,19,29.95,29.81,6,1,6,0.00
2013-5-16,75.6,67.1,56.0,54.4,50.4,47.1,74,56,43,29.96,29.85,8,2,8,0.00
2013-5-17,83.2,68.7,54.5,55.1,47.6,40.6,78,50,28,29.96,29.87,7,2,7,0.00
2013-5-18,84.7,67.6,51.8,47.7,43.1,35.9,77,46,19,30.07,29.95,7,1,7,0.00
2013-5-19,89.6,70.7,54.6,54.8,47.9,41.0,66,47,23,30.03,29.86,6,1,6,0.00
2013-5-20,96.5,75.8,56.4,52.7,47.8,42.5,77,42,17,29.95,29.81,6,1,6,0.00
2013-5-21,94.5,76.4,59.3,53.7,44.5,19.6,69,38,7,29.86,29.70,7,2,7,0.00
2013-5-22,76.7,63.4,51.3,46.5,39.5,27.9,71,44,18,29.92,29.77,7,2,7,0.00
2013-5-23,79.2,61.5,44.0,43.5,37.7,32.2,74,45,20,29.92,29.83,8,1,8,0.00
2013-5-24,85.4,66.4,47.7,49.2,42.4,36.7,69,45,21,29.97,29.82,7,1,7,0.00
2013-5-25,86.9,68.3,51.2,46.4,41.9,36.5,69,42,19,29.94,29.85,6,1,6,0.00
2013-5-26,83.5,67.8,52.1,52.4,47.7,44.5,76,51,28,30.04,29.91,7,2,7,0.00
2013-5-27,81.6,67.3,54.0,53.3,50.0,45.0,82,56,32,30.04,29.90,9,2,9,0.00
2013-5-28,83.7,68.5,54.9,59.9,54.0,50.1,87,62,34,29.94,29.77,9,2,9,0.00
2013-5-29,86.9,71.5,56.3,59.6,53.6,44.9,83,56,35,29.88,29.72,9,2,9,0.00
2013-5-30,88.1,67.5,57.1,57.6,50.9,46.6,75,57,33,29.90,29.83,4,0,4,0.00
2013-5-31,94.2,74.2,57.0,55.4,50.3,45.7,74,47,23,29.94,29.80,5,1,5,0.00
2013-6-1,101.1,78.9,61.5,59.0,53.5,49.7,71,45,21,29.85,29.67,4,0,4,0.00
2013-6-2,102.8,83.1,63.3,59.5,54.0,46.6,76,41,16,29.69,29.51,5,1,5,0.00
2013-6-3,98.5,80.7,66.7,58.4,54.3,50.5,61,42,24,29.70,29.61,6,1,6,0.00
2013-6-4,94.7,78.6,64.2,59.7,55.3,50.7,65,47,28,29.82,29.69,6,1,6,0.00
2013-6-5,95.7,79.0,64.3,63.2,59.2,54.6,76,53,31,29.90,29.74,6,1,6,0.00
2013-6-6,98.7,81.8,65.7,64.5,61.4,58.3,81,53,29,29.83,29.69,5,1,5,0.00
2013-6-7,102.7,85.1,69.2,67.6,64.0,59.4,73,52,29,29.76,29.61,8,1,8,0.00
2013-6-8,108.2,90.0,73.7,69.1,64.4,54.4,75,46,23,29.66,29.53,6,1,6,0.00
2013-6-9,103.6,86.0,72.9,65.4,57.9,50.1,57,40,23,29.71,29.60,6,1,6,0.00
2013-6-10,88.5,74.1,61.2,59.3,53.5,46.1,78,52,25,29.86,29.70,9,1,9,0.00
2013-6-11,97.8,77.9,61.8,61.7,57.5,53.0,76,53,27,29.90,29.74,6,1,6,0.00
2013-6-12,97.7,80.3,64.3,63.5,58.1,46.0,81,51,22,29.86,29.76,7,1,7,0.00
2013-6-13,90.8,74.4,57.9,52.3,44.7,36.3,67,39,15,29.99,29.85,6,1,6,0.00
2013-6-14,94.7,74.9,57.2,53.5,47.5,39.1,68,42,16,29.88,29.71,5,1,5,0.00
2013-6-15,97.8,78.3,60.1,52.4,45.9,36.6,64,36,13,29.83,29.74,6,1,6,0.00
2013-6-16,95.2,76.5,59.9,53.8,48.9,42.9,67,41,17,29.98,29.83,8,1,8,0.00
2013-6-17,95.1,76.5,59.3,56.2,50.3,46.1,66,42,23,30.00,29.83,5,1,5,0.00
2013-6-18,88.2,72.7,58.9,55.2,51.5,46.8,81,51,25,29.94,29.77,7,2,7,0.00
2013-6-19,83.4,68.6,53.7,53.1,48.1,44.4,77,51,27,29.98,29.85,7,2,7,0.00
2013-6-20,90.4,71.4,54.1,53.5,47.1,42.8,71,45,20,29.92,29.80,5,1,5,0.00
2013-6-21,92.4,74.1,55.7,53.2,48.7,43.4,73,44,19,29.90,29.77,5,1,5,0.00
2013-6-22,96.8,77.1,58.6,56.7,49.7,43.5,67,42,17,29.87,29.71,5,1,5,0.00
2013-6-23,87.8,74.5,60.8,57.2,52.2,46.7,67,47,29,29.78,29.69,8,2,8,0.00
2013-6-24,89.9,74.8,62.4,63.5,58.6,53.0,74,59,39,29.83,29.74,6,1,6,0.00
2013-6-25,95.6,79.4,64.7,65.0,60.9,57.1,79,56,33,29.93,29.80,6,1,6,0.00
2013-6-26,97.5,81.4,67.0,69.0,65.8,63.1,88,62,37,29.96,29.84,7,1,7,0.00
2013-6-27,101.5,84.4,68.7,69.5,66.4,64.0,86,58,33,29.99,29.88,6,1,6,0.00
2013-6-28,105.6,88.0,72.3,69.2,65.5,57.0,77,51,21,29.93,29.77,5,1,5,0.00
2013-6-29,107.7,90.2,75.1,68.1,63.7,58.3,67,45,23,29.83,29.67,6,1,6,0.00
2013-6-30,108.4,90.6,69.6,70.8,65.4,53.2,63,46,25,29.84,29.61,5,1,5,0.00
2013-7-1,106.5,88.5,69.7,71.0,66.1,52.8,70,50,28,29.83,29.66,4,1,4,0.00
2013-7-2,108.8,92.4,76.7,66.9,60.4,50.1,65,38,15,29.82,29.71,6,1,6,0.00
2013-7-3,105.0,88.1,76.0,70.7,61.9,51.9,67,42,29,29.80,29.63,4,0,4,0.00
2013-7-4,108.2,91.3,75.8,72.1,66.9,61.0,76,48,23,29.67,29.54,6,1,6,0.00
2013-7-5,108.1,91.2,77.5,71.0,62.1,51.9,62,40,24,29.65,29.53,6,1,6,0.00
2013-7-6,102.7,83.5,67.1,59.5,53.1,38.1,63,38,12,29.69,29.58,5,1,5,0.00
2013-7-7,106.7,84.9,67.3,62.7,53.3,40.0,60,36,16,29.74,29.63,6,1,6,0.00
2013-7-8,105.6,84.6,65.6,61.2,51.7,39.6,59,35,14,29.84,29.74,7,1,7,0.00
2013-7-9,106.4,85.8,67.8,64.9,56.4,48.1,60,40,16,29.94,29.79,5,1,5,0.00
2013-7-10,102.8,85.4,70.4,64.9,60.0,51.2,70,44,21,29.87,29.74,4,0,4,0.00
2013-7-11,100.5,85.5,75.2,64.6,57.1,47.1,61,40,20,29.82,29.71,4,1,4,0.00
2013-7-12,99.4,81.6,66.2,58.4,52.0,47.8,56,38,19,29.84,29.72,5,1,5,0.00
2013-7-13,101.7,86.8,68.7,58.8,54.2,48.7,60,36,19,29.87,29.75,6,1,6,0.00
2013-7-14,103.9,84.3,68.4,57.8,49.7,41.4,54,33,15,29.90,29.73,5,1,5,0.00
2013-7-15,99.4,82.7,68.2,58.4,50.6,40.7,53,35,20,29.80,29.64,7,1,7,0.00
2013-7-16,96.8,79.2,61.5,58.2,49.6,42.8,59,38,18,29.87,29.73,6,1,6,0.00
2013-7-17,95.7,77.7,61.3,61.5,57.7,51.1,83,54,23,30.00,29.87,7,1,7,0.00
2013-7-18,98.9,80.8,64.4,60.8,57.8,52.7,74,49,22,29.96,29.79,7,1,7,0.00
2013-7-19,100.9,82.8,65.6,61.6,55.0,45.3,65,42,17,29.85,29.69,5,1,5,0.00
2013-7-20,105.2,85.7,68.5,62.6,58.3,49.2,71,44,16,29.74,29.60,6,1,6,0.00
2013-7-21,101.9,86.8,72.7,64.6,58.1,50.7,55,39,25,29.74,29.63,5,0,5,0.00
2013-7-22,95.8,83.1,74.9,71.2,63.7,55.8,82,54,27,29.84,29.72,5,0,5,0.00
2013-7-23,99.7,84.9,72.2,68.2,62.4,53.5,78,50,28,29.90,29.79,6,1,6,0.00
2013-7-24,101.7,84.2,69.5,65.1,58.9,51.7,70,46,23,29.89,29.75,6,1,6,0.00
2013-7-25,102.7,86.9,72.4,67.4,62.2,57.5,65,46,25,29.87,29.79,7,1,7,0.00
2013-7-26,103.9,84.0,73.4,68.4,63.1,57.0,73,52,26,29.97,29.84,4,0,4,0.00
2013-7-27,101.0,86.4,75.4,67.4,61.5,55.9,67,46,23,29.90,29.69,7,1,7,0.00
2013-7-28,102.1,84.9,69.8,63.7,59.5,53.9,72,46,21,29.76,29.64,7,1,7,0.00
2013-7-29,101.6,83.9,68.9,63.3,57.7,52.5,62,44,20,29.87,29.71,6,1,6,0.00
2013-7-30,97.1,81.2,66.1,63.9,57.7,47.5,69,48,20,29.98,29.86,6,1,6,0.00
2013-7-31,97.5,80.8,65.3,61.2,56.6,49.6,67,46,21,29.98,29.82,6,1,6,0.00
2013-8-1,95.2,77.2,62.3,57.9,51.8,46.1,75,45,20,29.96,29.80,6,1,6,0.00
2013-8-2,96.0,76.3,58.1,53.9,48.6,37.9,74,43,14,29.90,29.77,6,1,6,0.00
2013-8-3,98.7,78.3,60.0,57.5,50.8,42.9,68,42,16,29.88,29.77,6,1,6,0.00
2013-8-4,99.6,79.2,61.5,58.7,51.2,42.2,58,40,18,29.90,29.78,6,1,6,0.00
2013-8-5,98.4,79.3,64.2,60.6,54.4,47.9,64,45,21,29.92,29.78,5,1,5,0.00
2013-8-6,97.2,79.1,63.3,59.6,56.2,50.5,77,50,23,29.91,29.80,6,1,6,0.00
2013-8-7,91.8,75.4,61.5,61.0,55.2,48.4,79,53,24,30.01,29.87,6,1,6,0.00
2013-8-8,90.4,74.4,60.1,60.9,57.0,53.3,87,58,31,29.95,29.78,6,1,6,0.00
2013-8-9,92.3,75.4,60.0,60.4,56.2,52.0,85,55,27,29.88,29.78,6,1,6,0.00
2013-8-10,92.9,76.0,61.3,60.5,56.9,53.2,83,55,28,29.95,29.84,8,1,8,0.00
2013-8-11,94.6,77.5,61.4,61.7,58.0,54.3,82,55,28,29.94,29.79,6,1,6,0.00
2013-8-12,97.7,79.1,63.3,63.5,58.1,53.0,77,53,24,29.91,29.79,5,1,5,0.00
2013-8-13,100.1,80.5,63.4,63.3,57.8,53.9,77,50,23,29.91,29.77,6,1,6,0.00
2013-8-14,101.7,81.5,65.2,62.8,57.3,49.9,72,48,19,29.88,29.74,4,1,4,0.00
2013-8-15,101.5,82.2,64.8,63.1,56.6,44.5,74,46,15,29.87,29.76,6,1,6,0.00
2013-8-16,101.5,82.2,67.2,64.0,59.8,53.0,73,50,21,29.89,29.78,5,1,5,0.00
2013-8-17,100.7,83.1,67.8,63.1,59.4,54.9,75,48,23,29.88,29.70,6,1,6,0.00
2013-8-18,98.8,81.4,67.6,65.2,59.9,56.6,70,50,26,29.82,29.67,5,1,5,0.00
2013-8-19,104.6,87.8,72.3,69.3,62.9,53.6,79,47,26,29.79,29.66,10,1,10,0.00
2013-8-20,104.1,87.3,74.6,66.3,56.6,45.4,48,36,22,29.78,29.65,6,1,6,0.00
2013-8-21,99.8,87.1,70.7,63.4,57.8,48.4,61,39,20,29.83,29.70,6,1,6,0.00
2013-8-22,100.0,81.6,65.7,60.6,56.9,49.8,72,47,20,29.85,29.69,6,1,6,0.00
2013-8-23,95.5,78.1,64.1,61.0,58.7,56.3,79,55,28,29.82,29.66,6,1,6,0.00
2013-8-24,96.9,78.5,61.8,60.8,56.1,48.5,78,51,20,29.80,29.67,6,1,6,0.00
2013-8-25,95.9,78.0,64.4,60.9,57.2,51.5,77,52,23,29.88,29.75,5,1,5,0.00
2013-8-26,94.4,77.9,62.0,63.9,58.9,53.6,78,54,30,29.92,29.74,5,1,5,0.00
2013-8-27,97.9,81.2,66.0,64.8,61.2,58.4,80,54,29,29.82,29.66,6,1,6,0.00
2013-8-28,99.4,81.7,66.9,65.3,60.7,55.2,75,52,28,29.83,29.72,5,1,5,0.00
2013-8-29,93.7,75.0,66.6,64.9,60.2,55.7,74,61,37,29.94,29.83,4,0,4,0.00
2013-8-30,100.3,87.4,74.6,65.7,62.3,59.4,68,45,27,29.96,29.80,4,1,4,0.00
2013-8-31,100.0,84.0,71.7,65.7,61.5,54.1,77,50,25,29.88,29.75,6,1,6,0.00
2013-9-1,96.0,83.1,71.7,67.8,63.6,58.7,76,54,32,29.85,29.74,5,1,5,0.00
2013-9-2,97.8,83.2,71.2,68.1,65.3,61.3,78,57,35,29.87,29.72,6,1,6,0.00
2013-9-3,95.2,81.5,72.3,68.1,64.3,60.6,72,57,39,29.91,29.77,5,1,5,0.00
2013-9-4,96.3,80.2,66.5,66.8,62.8,58.1,78,57,36,29.93,29.79,4,1,4,0.00
2013-9-5,94.8,79.7,66.2,64.6,61.0,57.9,78,55,34,29.91,29.79,6,1,6,0.00
2013-9-6,96.2,78.3,63.9,65.4,60.0,55.6,77,56,33,29.91,29.74,6,1,6,0.00
2013-9-7,101.9,81.7,65.1,65.8,61.4,53.3,87,55,23,29.83,29.69,6,1,6,0.00
2013-9-8,100.7,81.8,66.7,62.3,55.1,44.8,62,42,22,29.79,29.64,5,1,5,0.00
2013-9-9,99.1,81.4,66.6,63.2,57.3,52.3,72,47,22,29.73,29.59,4,1,4,0.00
2013-9-10,100.6,81.9,66.4,61.2,55.2,49.0,73,44,18,29.76,29.64,6,1,6,0.00
2013-9-11,93.3,76.4,63.4,60.7,55.3,49.4,72,50,27,29.90,29.76,4,1,4,0.00
2013-9-12,92.3,76.0,62.5,63.1,59.0,55.1,81,58,34,29.91,29.76,5,1,5,0.00
2013-9-13,96.4,78.7,64.4,62.9,60.3,57.8,84,57,29,29.80,29.63,5,1,5,0.00
2013-9-14,98.2,81.0,66.2,64.7,61.6,59.1,80,55,30,29.70,29.58,6,1,6,0.00
2013-9-15,97.3,79.5,65.7,64.7,60.3,54.1,81,55,29,29.74,29.64,6,1,6,0.00
2013-9-16,95.2,76.2,61.3,62.5,58.3,54.4,79,57,31,29.82,29.67,5,0,5,0.00
2013-9-17,88.7,73.6,62.7,61.4,54.9,47.8,81,55,29,29.78,29.68,8,1,8,0.00
2013-9-18,87.2,69.6,56.2,57.5,52.6,49.2,80,58,29,29.86,29.73,4,0,4,0.00
2013-9-19,92.7,73.5,58.2,58.3,53.4,50.6,81,54,24,29.82,29.66,4,1,4,0.00
2013-9-20,95.1,76.1,59.6,57.4,53.1,48.7,80,49,24,29.76,29.65,6,1,6,0.00
2013-9-21,85.2,69.6,57.9,61.1,54.5,46.5,81,61,31,29.83,29.70,13,2,13,0.00
2013-9-22,79.7,64.1,52.1,54.3,51.2,48.4,93,66,36,29.93,29.82,6,1,6,0.00
2013-9-23,86.0,67.4,53.0,57.0,52.5,48.0,84,62,34,29.99,29.85,5,0,5,0.00
2013-9-24,91.6,71.4,55.4,57.2,53.6,47.4,87,58,23,29.93,29.75,7,1,7,0.00
2013-9-25,75.7,64.1,53.6,53.3,48.2,43.6,85,59,34,29.88,29.69,9,2,9,0.00
2013-9-26,77.5,59.9,48.0,48.4,44.7,40.2,86,60,30,29.92,29.73,6,1,6,0.00
2013-9-27,83.2,62.9,47.4,48.2,42.8,38.0,82,52,21,30.05,29.92,5,1,5,0.00
2013-9-28,87.4,65.1,48.2,50.4,44.2,39.3,83,52,19,30.08,29.93,5,1,5,0.00
2013-9-29,90.0,68.0,51.1,51.2,43.8,37.2,78,47,17,30.07,29.94,4,0,4,0.00
2013-9-30,86.2,67.4,52.2,58.5,51.4,42.3,80,59,30,30.05,29.86,5,1,5,0.00
2013-10-1,85.3,68.7,54.1,61.1,55.2,49.4,86,65,34,29.95,29.81,4,1,4,0.00
2013-10-2,83.1,67.1,54.8,54.5,51.2,47.9,83,60,33,29.94,29.82,7,1,7,0.00
2013-10-3,76.7,60.6,49.1,49.1,46.0,43.9,85,62,33,29.98,29.85,4,0,4,0.00
2013-10-4,81.0,66.1,49.4,47.0,43.0,38.5,85,48,23,30.08,29.92,6,1,6,0.00
2013-10-5,85.6,64.4,48.5,49.2,42.9,35.4,80,51,19,30.18,30.07,6,1,6,0.00
2013-10-6,89.2,65.7,48.0,47.3,40.8,27.0,86,48,11,30.12,29.94,6,1,6,0.00
2013-10-7,88.2,66.4,53.3,47.2,41.1,36.0,67,43,17,29.95,29.79,5,0,5,0.00
2013-10-8,84.8,65.3,50.0,49.0,40.5,35.7,65,43,21,29.85,29.65,5,0,5,0.00
2013-10-9,61.4,56.6,49.4,49.1,46.0,41.7,85,68,53,29.77,29.62,4,0,4,0.00
2013-10-10,75.2,59.1,45.9,49.5,45.6,41.4,86,64,36,29.96,29.77,4,0,4,0.00
2013-10-11,79.1,60.6,45.9,50.2,46.0,42.9,92,63,30,30.04,29.90,4,1,4,0.00
2013-10-12,80.3,61.9,47.4,51.3,47.2,43.7,88,62,32,29.97,29.82,5,0,5,0.00
2013-10-13,75.8,59.8,48.1,50.9,47.5,43.3,86,66,37,30.03,29.83,6,1,6,0.00
2013-10-14,79.4,61.3,47.3,50.2,46.9,43.6,89,63,31,30.09,29.95,4,1,4,0.00
2013-10-15,81.3,62.4,46.9,48.6,45.3,42.8,88,58,27,30.02,29.90,6,1,6,0.00
2013-10-16,83.2,62.7,47.2,47.5,42.2,35.8,82,53,19,30.09,29.97,5,1,5,0.00
2013-10-17,82.7,62.4,47.1,48.3,42.2,36.7,74,52,22,30.06,29.91,4,0,4,0.00
2013-10-18,85.0,63.5,47.5,50.1,44.3,40.1,86,55,24,30.03,29.93,4,1,4,0.00
2013-10-19,85.2,63.2,47.3,64.5,45.3,39.9,82,57,24,30.06,29.93,5,0,5,0.00
2013-10-20,83.8,63.0,47.8,49.2,44.3,40.2,77,55,23,29.99,29.85,5,0,5,0.00
2013-10-21,84.7,63.5,47.4,50.7,45.8,41.4,85,58,25,29.96,29.84,4,0,4,0.00
2013-10-22,84.9,64.0,47.8,49.4,45.6,41.2,81,56,23,29.99,29.84,4,0,4,0.00
2013-10-23,81.3,63.9,50.7,52.2,46.6,41.3,78,56,29,29.92,29.81,4,0,4,0.00
2013-10-24,83.6,63.0,48.5,52.5,47.3,42.9,84,61,27,30.01,29.88,4,0,4,0.00
2013-10-25,80.6,62.2,50.2,52.7,48.2,43.5,81,63,33,30.13,30.01,4,0,4,0.00
2013-10-26,80.8,61.9,47.5,53.2,48.9,44.4,91,66,33,30.12,29.96,6,0,6,0.00
2013-10-27,81.9,63.3,49.3,53.6,48.7,43.4,88,62,32,29.98,29.65,4,0,4,0.00
2013-10-28,62.0,54.7,48.9,51.2,47.0,44.1,92,76,52,29.88,29.70,4,1,4,0.17
2013-10-29,66.5,54.4,46.2,50.0,46.3,42.5,95,77,42,30.00,29.88,5,0,5,0.00
2013-10-30,68.7,53.6,42.4,48.5,44.8,40.8,96,75,41,30.13,30.00,4,0,4,0.00
2013-10-31,71.0,54.7,42.8,48.8,45.5,40.6,95,74,43,30.18,30.05,5,0,5,0.00
2013-11-1,76.3,56.7,42.7,50.8,46.6,40.8,95,73,36,30.15,29.99,4,0,4,0.00
2013-11-2,77.7,57.9,44.0,48.9,45.9,41.8,93,69,32,30.02,29.84,4,0,4,0.00
2013-11-3,66.3,53.6,43.3,47.8,44.0,40.5,91,72,46,29.99,29.85,4,0,4,0.00
2013-11-4,65.5,52.6,44.4,44.4,39.4,35.7,83,63,34,30.04,29.86,4,0,4,0.00
2013-11-5,71.0,52.2,39.0,41.7,38.3,35.7,89,64,28,30.22,30.04,4,0,4,0.00
2013-11-6,73.9,53.5,39.2,43.0,39.0,35.3,90,63,25,30.29,30.16,5,0,5,0.00
2013-11-7,77.7,56.7,43.9,44.7,40.7,37.5,85,60,25,30.17,30.03,4,0,4,0.00
2013-11-8,74.9,55.4,42.0,45.7,41.0,37.2,85,63,28,30.07,29.93,4,0,4,0.00
2013-11-9,77.7,55.7,41.1,49.9,41.9,38.0,90,65,27,30.03,29.93,4,0,4,0.00
2013-11-10,78.8,56.7,41.1,46.9,40.4,35.8,87,60,22,30.10,29.98,4,0,4,0.00
2013-11-11,76.1,56.6,41.4,48.8,43.0,37.0,86,64,33,30.17,30.03,4,0,4,0.00
2013-11-12,66.7,58.0,50.2,50.6,46.9,42.5,86,67,51,30.26,30.12,2,0,2,0.00
2013-11-13,74.1,58.5,44.2,51.0,46.7,41.3,92,67,40,30.23,30.07,4,0,4,0.00
2013-11-14,76.9,57.3,43.9,48.5,45.0,41.3,92,67,32,30.09,29.79,4,0,4,0.00
2013-11-15,68.3,53.2,43.5,48.7,44.1,40.4,90,73,44,29.80,29.70,6,1,6,0.00
2013-11-16,70.4,53.0,41.9,46.3,42.8,39.5,93,71,38,29.91,29.75,4,0,4,0.00
2013-11-17,69.4,52.3,41.7,46.6,41.9,37.6,88,70,40,30.08,29.91,5,0,5,0.00
2013-11-18,68.8,53.2,42.3,46.4,43.2,39.4,91,71,40,30.15,30.01,4,0,4,0.00
2013-11-19,67.4,52.7,42.2,50.2,45.0,39.3,91,76,50,30.11,29.97,4,0,4,0.00
2013-11-20,70.1,57.9,51.2,54.2,50.2,46.2,95,77,49,29.98,29.81,4,0,4,0.37
2013-11-21,58.6,55.1,51.7,55.3,53.1,50.6,97,93,85,29.94,29.83,5,1,5,0.19
2013-11-22,56.6,52.0,48.7,51.8,49.9,47.1,97,93,81,30.01,29.92,2,0,2,0.00
2013-11-23,63.2,51.2,44.9,49.9,46.9,43.8,98,86,59,30.11,29.98,4,0,4,0.01
2013-11-24,66.1,50.6,40.1,49.8,44.6,39.1,98,82,49,30.25,30.10,6,0,6,0.00
2013-11-25,66.1,49.9,39.6,50.5,44.7,38.6,97,84,54,30.34,30.25,4,0,4,0.00
2013-11-26,63.8,50.7,40.8,51.0,46.3,39.7,98,86,61,30.27,30.07,4,0,4,0.00
2013-11-27,72.1,54.8,44.3,51.6,45.6,41.6,97,75,35,30.07,29.82,5,0,5,0.00
2013-11-28,67.7,53.6,44.9,49.7,45.2,41.9,91,75,44,30.05,29.85,4,0,4,0.00
2013-11-29,70.3,51.6,41.4,50.3,45.0,39.3,94,80,46,30.23,30.05,2,0,2,0.00
2013-11-30,69.8,51.1,39.4,48.5,43.4,37.8,96,78,44,30.27,30.16,4,0,4,0.00
2013-12-1,69.2,50.8,39.3,49.8,44.1,37.4,95,80,48,30.36,30.22,4,0,4,0.00
2013-12-2,70.0,51.1,39.8,50.5,44.5,38.2,97,80,47,30.25,29.93,4,0,4,0.00
2013-12-3,54.3,46.9,35.9,52.3,43.8,33.0,95,89,76,29.94,29.76,6,1,6,0.01
2013-12-4,53.1,38.4,29.9,34.3,29.9,25.4,96,75,36,30.08,29.89,4,0,4,0.00
2013-12-5,50.7,34.7,24.7,30.6,27.0,23.2,96,76,41,30.20,30.05,4,0,4,0.00
2013-12-6,52.4,37.3,24.9,30.5,27.6,23.2,95,71,40,30.25,30.12,4,0,4,0.00
2013-12-7,51.4,42.4,29.1,42.2,32.1,24.5,92,69,37,30.21,29.95,10,1,10,0.07
2013-12-8,49.1,34.9,25.8,33.1,28.7,24.1,95,80,49,30.32,30.21,4,0,4,0.00
2013-12-9,50.4,34.4,24.4,33.8,28.2,22.9,95,80,47,30.44,30.31,4,0,4,0.00
2013-12-10,52.8,35.1,23.8,34.6,28.4,22.3,95,79,47,30.44,30.23,4,0,4,0.00
2013-12-11,59.9,39.9,27.3,35.6,31.6,25.5,95,75,38,30.28,30.19,5,0,5,0.00
2013-12-12,61.4,41.0,28.0,38.0,32.3,26.1,95,74,37,30.28,30.18,4,0,4,0.00
2013-12-13,58.7,39.7,29.5,38.8,32.7,27.5,94,78,44,30.35,30.20,4,0,4,0.00
2013-12-14,61.9,42.3,29.8,40.3,34.3,28.0,94,76,41,30.43,30.33,5,0,5,0.00
2013-12-15,61.1,43.2,30.4,41.6,35.8,28.6,94,77,46,30.39,30.25,4,0,4,0.00
2013-12-16,64.1,45.7,34.2,44.3,38.3,32.3,96,78,46,30.28,30.16,4,0,4,0.00
2013-12-17,66.8,49.3,36.5,46.9,41.5,34.4,94,77,47,30.21,30.05,4,0,4,0.00
2013-12-18,67.1,53.4,47.4,49.5,45.2,42.9,87,74,49,30.05,29.73,7,0,7,0.00
2013-12-19,57.4,49.1,40.0,45.2,42.8,38.2,94,80,57,29.90,29.69,5,1,5,0.00
2013-12-20,58.0,46.1,38.4,41.6,35.4,30.4,95,69,40,30.03,29.90,4,0,4,0.00
2013-12-21,61.3,44.1,33.2,39.5,34.8,30.1,91,72,42,30.11,29.98,5,0,5,0.00
2013-12-22,64.8,45.0,32.3,40.0,35.3,30.5,95,72,36,30.33,30.10,4,0,4,0.00
2013-12-23,67.2,46.8,33.7,42.0,37.1,31.3,93,72,39,30.41,30.31,4,0,4,0.00
2013-12-24,65.1,46.6,34.2,43.3,38.2,32.1,95,75,44,30.35,30.23,4,0,4,0.00
2013-12-25,69.1,47.3,34.9,45.6,38.6,32.6,94,75,37,30.31,30.21,4,0,4,0.00
2013-12-26,68.0,46.8,33.6,44.9,38.1,30.8,92,75,42,30.31,30.18,4,0,4,0.00
2013-12-27,68.8,47.8,32.3,44.4,38.3,29.9,92,72,36,30.27,30.12,4,0,4,0.00
2013-12-28,63.7,46.7,35.4,44.3,39.1,33.1,93,77,46,30.13,30.03,4,0,4,0.00
2013-12-29,67.5,46.2,32.3,43.8,37.0,30.5,95,74,37,30.21,30.11,4,0,4,0.00
2013-12-30,73.2,47.7,31.5,39.4,33.5,28.6,90,64,22,30.26,30.18,4,0,4,0.00
2013-12-31,67.1,45.9,32.4,39.6,34.5,27.9,86,67,33,30.27,30.14,4,0,4,0.00
2014-1-1,67.4,46.2,32.6,40.9,35.7,29.7,90,70,35,30.24,30.12,4,0,4,0.00
2014-1-2,67.8,47.3,34.2,42.0,37.1,31.2,91,71,37,30.19,30.06,4,0,4,0.00